(456493) = 2006 WA154

Discovered at Mount Lemmon on 2006-11-22 by Mt. Lemmon Survey.

Orbit

Orbit type: Main Belt

Note: WebGL enabled browser required.

epoch2023-09-13.0
epoch JD2460200.5
perihelion date2023-10-30.67824
perihelion JD2460248.17824
argument of perihelion (°)109.98983
ascending node (°)227.45499
inclination (°)4.10405
eccentricity0.2453399
perihelion distance (AU)2.0167295
Tisserand w.r.t. Jupiter3.3
ΔV w.r.t. Earth (km/sec)9.1
semimajor axis (AU)2.6723678
mean anomaly (°)349.24328
mean daily motion (°/day)0.22561060
aphelion distance (AU)3.328
period (years)4.37
P-vector [x]0.92173515
P-vector [y]-0.37717939
P-vector [z]-0.09022207
Q-vector [x]0.38421886
Q-vector [y]0.85649246
Q-vector [z]0.34466874
absolute magnitude17.84
phase slope0.15
uncertainty0
referenceMPEC 2023-N43
observations used90
oppositions6
arc length (days)6640
first opposition used2005
last opposition used2023
residual rms (arc-secs)0.32
perturbers coarse indicatorM-v
perturbers precise indicator003Ek
first observation date used2005-05-04.0
last observation date used2023-07-09.0
computer nameMPCLINUX
JD of orbit computation2457391.150712
perihelion JD uncertainty (days)1.2974E-04
argument of perihelion uncertainty (°)9.2723E-05
ascending node uncertainty (°)8.6003E-05
inclination uncertainty (°)1.0314E-05
eccentricity uncertainty 8.2269E-08
perihelion distance uncertainty (AU)2.2244E-07
Minimum Orbit Intersection Distances (in AU)
for orbit epoch: 2460000.5, reference: E2023-N43
Mercury1.6268
Venus1.29813
Earth1.01079
Mars0.65564
Jupiter2.08661
Saturn5.96362
Uranus15.1308
Neptune27.1726

Observations

90 total observations over interval: 2005 05 04.30640 – 2023 07 09.541990
These data are available for download (format description).

Date (UT) J2000 RA J2000 Dec Magn Location Ref
2005 05 04.30640 14 57 19.36 -17 04 32.8 20.0 R G96 – Mt. Lemmon Survey MPS 347146
2005 05 04.31436 14 57 18.91 -17 04 30.3 20.3 R G96 – Mt. Lemmon Survey MPS 347146
2005 05 04.32235 14 57 18.46 -17 04 27.7 20.8 R G96 – Mt. Lemmon Survey MPS 347146
2005 05 04.33035 14 57 17.98 -17 04 25.1 20.8 R G96 – Mt. Lemmon Survey MPS 347146
2006 09 28.29554 02 55 25.89 +18 58 03.8 20.9 V G96 – Mt. Lemmon Survey MPS 280189
2006 09 28.30191 02 55 25.71 +18 58 02.8 20.8 V G96 – Mt. Lemmon Survey MPS 280189
2006 09 28.30799 02 55 25.60 +18 58 01.7 20.7 V G96 – Mt. Lemmon Survey MPS 280189
2006 09 28.31399 02 55 25.53 +18 58 00.8 21.2 V G96 – Mt. Lemmon Survey MPS 280189
2006 10 20.34471 02 42 36.11 +17 18 01.4 20.7 V 691 – Steward Observatory, Kitt Peak-Spacewatch MPS 280189
2006 10 20.36205 02 42 35.18 +17 17 55.5 20.5 V 691 – Steward Observatory, Kitt Peak-Spacewatch MPS 280189
2006 10 20.37940 02 42 34.29 +17 17 48.8 20.6 V 691 – Steward Observatory, Kitt Peak-Spacewatch MPS 280189
2006 10 28.33334 02 35 37.95 +16 26 43.9 21.0 V 691 – Steward Observatory, Kitt Peak-Spacewatch MPS 280189
2006 10 28.35074 02 35 36.95 +16 26 36.8 20.9 V 691 – Steward Observatory, Kitt Peak-Spacewatch MPS 280189
2006 10 28.36868 02 35 35.96 +16 26 29.6 21.1 V 691 – Steward Observatory, Kitt Peak-Spacewatch MPS 280189
2006 11 14.17351 02 21 10.72 +14 34 40.2 20.1 V G96 – Mt. Lemmon Survey MPS 280189
2006 11 14.17955 02 21 10.44 +14 34 37.9 20.3 V G96 – Mt. Lemmon Survey MPS 280189
2006 11 14.18572 02 21 10.15 +14 34 35.6 20.4 V G96 – Mt. Lemmon Survey MPS 280189
2006 11 14.19193 02 21 09.86 +14 34 33.1 20.3 V G96 – Mt. Lemmon Survey MPS 280189
2006 11 22.13175 02 15 48.24 +13 48 31.4 20.6   G96 – Mt. Lemmon Survey MPS 190882
2006 11 22.14101 02 15 47.95 +13 48 28.0 20.7   G96 – Mt. Lemmon Survey MPS 190882
2006 11 22.15013 02 15 47.59 +13 48 25.3 21.3   G96 – Mt. Lemmon Survey MPS 190882
2006 11 22.15942 02 15 47.26 +13 48 22.6 21.2   G96 – Mt. Lemmon Survey MPS 190882
2006 11 27.16473 02 13 11.92 +13 23 50.3 21.3 V G96 – Mt. Lemmon Survey MPS 190882
2006 11 27.17311 02 13 11.64 +13 23 48.1 21.7 V G96 – Mt. Lemmon Survey MPS 190882
2006 11 27.18151 02 13 11.38 +13 23 45.8 21.2 V G96 – Mt. Lemmon Survey MPS 190882
2006 11 27.18979 02 13 11.17 +13 23 43.8 21.0 V G96 – Mt. Lemmon Survey MPS 190882
2010 08 13.29084 21 34 55.58 -05 46 39.6 19.4   704 – Lincoln Laboratory ETS, New Mexico MPS 347146
2010 08 13.30325 21 34 55.03 -05 46 40.8 19.9   704 – Lincoln Laboratory ETS, New Mexico MPS 347146
2010 08 13.31566 21 34 54.45 -05 46 43.9 19.6   704 – Lincoln Laboratory ETS, New Mexico MPS 347146
2010 09 03.17947 21 20 47.36 -07 21 47.5 19.7 V G96 – Mt. Lemmon Survey MPS 347146
2010 09 03.18582 21 20 47.14 -07 21 49.5 19.7 V G96 – Mt. Lemmon Survey MPS 347146
2010 09 03.19215 21 20 46.93 -07 21 51.4 19.7 V G96 – Mt. Lemmon Survey MPS 347146
2010 09 03.19850 21 20 46.71 -07 21 52.9 19.6 V G96 – Mt. Lemmon Survey MPS 347146
2010 10 11.19524 21 23 04.99 -09 22 09.0 20.7 V G96 – Mt. Lemmon Survey MPS 351326
2010 10 11.20220 21 23 05.28 -09 22 09.5 20.7 V G96 – Mt. Lemmon Survey MPS 351326
2010 10 11.20917 21 23 05.53 -09 22 09.6 20.7 V G96 – Mt. Lemmon Survey MPS 351326
2010 10 11.21608 21 23 05.82 -09 22 09.8 20.9 V G96 – Mt. Lemmon Survey MPS 351326
2015 12 07.48078 05 00 50.288 +19 37 28.40 21.3 w F51 – Pan-STARRS 1, Haleakala MPS 657226
2015 12 07.49199 05 00 49.563 +19 37 26.52 21.2 w F51 – Pan-STARRS 1, Haleakala MPS 657226
2015 12 07.50324 05 00 48.827 +19 37 24.36 21.2 w F51 – Pan-STARRS 1, Haleakala MPS 657226
2015 12 09.49933 04 58 44.261 +19 31 49.35 21.0 w F51 – Pan-STARRS 1, Haleakala MPS 657226
2015 12 09.51321 04 58 43.376 +19 31 46.82 21.0 w F51 – Pan-STARRS 1, Haleakala MPS 657226
2016 01 03.21554 04 37 32.97 +18 36 55.5 20.8 V G96 – Mt. Lemmon Survey MPS 665480
2016 01 03.22062 04 37 32.80 +18 36 55.0 20.5 V G96 – Mt. Lemmon Survey MPS 665480
2016 01 03.22571 04 37 32.58 +18 36 55.0 20.5 V G96 – Mt. Lemmon Survey MPS 665480
2016 01 03.23080 04 37 32.39 +18 36 54.4 20.7 V G96 – Mt. Lemmon Survey MPS 665480
2019 06 11.58411 00 11 30.028 +05 29 23.73 21.5 w F51 – Pan-STARRS 1, Haleakala MPS 1012151
2019 06 11.58927 00 11 30.551 +05 29 27.44 22.0 w F51 – Pan-STARRS 1, Haleakala MPS 1012151
2019 06 11.59440 00 11 31.032 +05 29 30.96 21.9 w F51 – Pan-STARRS 1, Haleakala MPS 1012151
2019 06 11.59957 00 11 31.560 +05 29 34.38 21.9 w F51 – Pan-STARRS 1, Haleakala MPS 1012151
2019 09 22.41456 01 35 03.36 +14 17 46.5 20.6 G G96 – Mt. Lemmon Survey MPS 1037269
2019 09 22.41862 01 35 03.21 +14 17 45.1 20.7 G G96 – Mt. Lemmon Survey MPS 1037269
2019 09 22.42268 01 35 03.09 +14 17 44.3 21.1 G G96 – Mt. Lemmon Survey MPS 1037269
2019 09 22.42676 01 35 02.94 +14 17 43.4 20.6 G G96 – Mt. Lemmon Survey MPS 1037269
2019 09 30.29880 01 30 12.96 +13 36 17.8 20.3 G G96 – Mt. Lemmon Survey MPS 1056547
2019 09 30.30447 01 30 12.71 +13 36 15.7 20.3 G G96 – Mt. Lemmon Survey MPS 1056547
2019 09 30.31012 01 30 12.47 +13 36 13.7 20.4 G G96 – Mt. Lemmon Survey MPS 1056547
2019 09 30.31578 01 30 12.20 +13 36 11.6 20.2 G G96 – Mt. Lemmon Survey MPS 1056547
2019 10 07.52985 01 24 50.153 +12 49 02.12 20.1 w F51 – Pan-STARRS 1, Haleakala MPS 1056547
2019 10 07.54217 01 24 49.544 +12 48 56.98 20.2 w F51 – Pan-STARRS 1, Haleakala MPS 1056547
2019 10 07.55445 01 24 48.939 +12 48 51.68 20.0 w F51 – Pan-STARRS 1, Haleakala MPS 1056547
2019 10 07.56676 01 24 48.334 +12 48 46.43 20.0 w F51 – Pan-STARRS 1, Haleakala MPS 1056547
2019 10 22.46174 01 13 07.355 +10 57 38.84 20.4 w F52 – Pan-STARRS 2, Haleakala MPS 1064797
2019 10 22.47265 01 13 06.833 +10 57 33.82 20.4 w F52 – Pan-STARRS 2, Haleakala MPS 1064797
2019 10 22.48355 01 13 06.324 +10 57 28.88 20.5 w F52 – Pan-STARRS 2, Haleakala MPS 1064797
2019 10 22.49448 01 13 05.812 +10 57 24.09 20.5 w F52 – Pan-STARRS 2, Haleakala MPS 1064797
2019 10 26.23938 01 10 26.19 +10 29 31.3 20.2 G G96 – Mt. Lemmon Survey MPS 1074789
2019 10 26.24502 01 10 25.95 +10 29 29.0 20.0 G G96 – Mt. Lemmon Survey MPS 1074789
2019 10 26.25067 01 10 25.70 +10 29 26.6 20.4 G G96 – Mt. Lemmon Survey MPS 1074789
2019 10 26.25632 01 10 25.44 +10 29 24.0 20.3 G G96 – Mt. Lemmon Survey MPS 1074789
2019 10 27.44888 01 09 37.184 +10 20 45.61 20.2 w F51 – Pan-STARRS 1, Haleakala MPS 1074789
2019 10 27.47434 01 09 36.107 +10 20 34.46 20.2 w F51 – Pan-STARRS 1, Haleakala MPS 1074789
2019 10 27.48707 01 09 35.569 +10 20 29.00 20.2 w F51 – Pan-STARRS 1, Haleakala MPS 1074789
2019 11 01.45807 01 06 33.550 +09 45 56.83 20.2 w F52 – Pan-STARRS 2, Haleakala MPS 1078304
2019 11 01.46903 01 06 33.163 +09 45 52.42 20.4 w F52 – Pan-STARRS 2, Haleakala MPS 1078304
2019 11 01.48006 01 06 32.753 +09 45 47.95 20.2 w F52 – Pan-STARRS 2, Haleakala MPS 1078304
2019 11 15.31267 01 01 18.829 +08 29 20.72 20.5 i F52 – Pan-STARRS 2, Haleakala MPS 1083799
2019 11 15.32580 01 01 18.649 +08 29 17.34 20.8 i F52 – Pan-STARRS 2, Haleakala MPS 1083799
2019 11 15.33889 01 01 18.474 +08 29 13.61 20.5 i F52 – Pan-STARRS 2, Haleakala MPS 1083799
2019 11 15.35200 01 01 18.285 +08 29 10.40 20.5 i F52 – Pan-STARRS 2, Haleakala MPS 1083799
2023 06 15.532786 20 25 13.877 -13 10 51.86 20.95 w F51 – Pan-STARRS 1, Haleakala MPS 1914559
2023 06 15.545272 20 25 13.796 -13 10 49.54 20.92 w F51 – Pan-STARRS 1, Haleakala MPS 1914559
2023 06 15.557742 20 25 13.721 -13 10 46.90 20.96 w F51 – Pan-STARRS 1, Haleakala MPS 1914559
2023 06 19.567091 20 24 44.305 -12 58 35.61 21.25 w F51 – Pan-STARRS 1, Haleakala MPS 1914559
2023 06 19.576773 20 24 44.168 -12 58 34.03 21.27 w F51 – Pan-STARRS 1, Haleakala MPS 1914559
2023 06 19.586469 20 24 44.038 -12 58 32.35 21.27 w F51 – Pan-STARRS 1, Haleakala MPS 1914559
2023 06 19.596155 20 24 43.901 -12 58 30.75 21.46 w F51 – Pan-STARRS 1, Haleakala MPS 1914559
2023 07 09.506959 20 15 38.531 -12 27 59.07 20.87 w F51 – Pan-STARRS 1, Haleakala MPS 1935281
2023 07 09.531006 20 15 37.453 -12 27 58.47 20.93 w F51 – Pan-STARRS 1, Haleakala MPS 1935281
2023 07 09.541990 20 15 36.957 -12 27 58.31 20.69 w F51 – Pan-STARRS 1, Haleakala MPS 1935281